Location: D?ba
(52.4940°N, 20.9175°E)
Time: 20:16:03
(UTC+00:00)

Daily predictions for brighter satellites

Satellite Brightness Start Highest point End
(mag) Time Altitude Azimuth Time Altitude Azimuth Time Altitude Azimuth
Cosmos 2322 Rocket 3.0 19:43:28 10° SW 19:49:00 57° NW 19:54:33 10° NNE
BREEZE M DEB (TANK) 3.6 19:47:13 10° W 19:49:32 21° SSW 19:51:14 10° SSE
NOSS 3-3 (A) 4.5 19:46:25 10° S 19:51:48 38° ESE 19:57:47 10° NE
NOSS 3-3 (C) 4.5 19:46:33 10° S 19:51:55 37° ESE 19:57:54 10° NE
CZ-4B DEB 4.4 19:50:48 10° SSE 19:54:09 87° ENE 19:57:32 10° NNW
Cosmos 2237 4.4 19:48:39 10° SSW 19:54:24 82° WNW 20:00:12 10° NNE
Cosmos 1455 3.8 19:50:57 10° NNW 19:54:26 33° W 19:57:56 10° SSW
Cosmos 1758 Rocket 3.9 19:51:47 10° SSW 19:56:16 72° WNW 20:00:47 10° N
USA 245 4.1 19:56:09 10° S 19:59:34 49° W 20:03:54 10° NNW
Cosmos 1328 4.0 19:57:36 10° SSW 20:01:34 74° WNW 20:05:34 10° N
Cosmos 1538 Rocket 4.3 20:01:37 10° S 20:06:47 50° ESE 20:11:55 10° NNE
ATLAS 2AS CENTAUR R/B 3.2 19:59:30 10° NW 20:07:15 65° NE 20:14:21 10° ESE
Cosmos 2181 Rocket 4.1 20:03:46 10° N 20:10:11 87° W 20:16:26 10° S
COSMOS 2428 2.9 20:06:09 10° S 20:11:37 51° ESE 20:17:06 10° NE
Cosmos 1703 4.2 20:08:44 10° SSW 20:12:31 50° WNW 20:16:20 10° N
Cosmos 2322 3.7 20:08:39 10° SSW 20:14:23 81° ESE 20:20:08 10° NNE
Cosmos 2084 3.9 20:11:05 10° NW 20:15:27 54° SW 20:19:31 11° SSE
Cosmos 2074 Rocket 4.4 20:10:23 10° SSE 20:16:18 49° E 20:22:15 10° NNE
Cosmos 1953 Rocket 3.7 20:15:13 10° SSW 20:19:31 74° WNW 20:23:53 10° N
Cosmos 773 Rocket 4.1 20:15:11 10° SSW 20:20:30 89° ESE 20:25:50 10° NNE
USA 215 3.6 20:14:54 10° ENE 20:21:07 43° SE 20:27:17 10° SSW
ATLAS CENTAUR R/B 1.8 20:18:06 10° NW 20:21:38 42° SW 20:24:46 12° SSE
Meteor 1-27 4.4 20:16:29 10° NNW 20:22:13 77° W 20:27:59 10° S
ERS-1 Rocket 3.3 20:17:24 10° S 20:22:23 64° WSW 20:27:26 10° NNW
Cosmos 2237 Rocket 3.2 20:17:58 10° SSE 20:22:43 28° ESE 20:27:29 10° NE
Cosmos 2219 Rocket 2.2 20:17:53 10° SSW 20:23:25 67° ESE 20:29:00 10° NE
Cosmos 1869 3.4 20:19:28 10° N 20:23:25 65° ENE 20:27:01 13° SSE
Cosmos 1842 Rocket 3.5 20:20:57 10° N 20:25:21 82° ENE 20:29:24 12° SSE
Cosmos 1818 4.0 20:19:58 10° SW 20:25:23 67° NW 20:30:51 10° NE
Cosmos 2360 Rocket 3.1 20:20:40 10° SW 20:26:12 55° NW 20:31:48 10° NNE
Cosmos 2333 4.3 20:20:36 10° SSW 20:26:16 88° WNW 20:32:02 10° NNE
SPOT 5 3.2 20:23:34 10° S 20:28:32 64° WSW 20:33:16 10° NNW
CZ-4C R/B 4.1 20:24:06 10° NW 20:30:00 37° NNE 20:36:54 10° E
GEOS 3 Rocket 3.7 20:31:43 10° NE 20:37:09 84° SE 20:42:34 10° SW
Cosmos 2333 Rocket 2.2 20:31:35 10° SSW 20:37:18 86° ESE 20:43:05 10° NNE
BREEZE-M DEB (TANK) 4.2 20:43:57 14° SE 20:44:52 15° ESE 20:48:10 10° E
ALOS 2 4.3 20:41:49 10° ESE 20:45:20 24° ENE 20:48:52 10° N
NOSS 0 Rocket 4.2 20:39:29 10° S 20:45:22 50° ESE 20:51:19 10° NE
Cosmos 1315 Rocket 3.9 20:41:52 10° NNW 20:45:45 42° W 20:49:38 10° SSW
Cosmos 2056 Rocket 4.0 20:42:05 10° NNW 20:47:26 56° ENE 20:52:07 14° SE
Meteor 2-2 Rocket 4.4 20:42:03 10° NNW 20:47:55 81° W 20:53:03 13° S
Iridium 2 4.5 20:44:37 10° N 20:48:15 39° ENE 20:50:54 16° SE
Cosmos 2278 Rocket 2.4 20:48:34 10° NW 20:54:12 65° WSW 20:58:50 15° SSE
Cosmos 1892 2.8 20:51:28 16° S 20:54:23 58° E 20:58:08 10° NNE
ATLAS 5 CENTAUR R/B 2.7 20:50:45 10° WSW 20:54:58 50° NNW 20:59:50 10° NE
USA 267 3.3 20:49:19 11° SE 20:55:45 70° SSW 21:02:20 10° WNW
Cosmos 2297 4.3 20:51:03 10° NNW 20:56:41 52° NE 21:01:57 12° SE
Cosmos 1943 Rocket 3.6 20:52:32 10° NNW 20:57:38 33° NE 21:02:42 10° ESE
Cosmos 1606 4.2 20:56:20 10° N 20:59:43 27° ENE 21:02:25 14° ESE
MTI 3.6 20:56:49 10° NNE 20:59:56 84° ESE 21:02:17 16° SSW
Cosmos 1680 Rocket 3.8 20:59:29 13° S 21:04:07 53° ESE 21:09:19 10° NNE
Cosmos 1408 2.9 21:03:38 20° SSE 21:05:51 48° E 21:09:19 10° NNE
SL-16 R/B 3.5 21:04:44 16° SE 21:07:50 24° ESE 21:12:18 10° NE
Cosmos 371 Rocket 4.2 21:03:56 10° NNW 21:08:34 41° NE 21:12:42 12° SE
Cosmos 2221 3.4 21:07:22 10° NNW 21:11:32 43° W 21:15:14 12° SSW
APEX 4.4 21:10:09 10° N 21:12:26 22° NE 21:14:37 11° E
Cosmos 2184 Rocket 4.2 21:09:16 10° SSW 21:15:31 74° WNW 21:21:52 10° N
Lacrosse 5 rocket 2.2 21:13:01 10° WNW 21:17:03 49° NNE 21:20:52 10° E
Terra 3.2 21:15:04 10° SSW 21:19:18 31° W 21:23:34 10° NNW
In-Cosmos 22 Rocket 4.1 21:14:18 11° SSW 21:19:24 82° WNW 21:24:46 10° NNE
CREW DRAGON DEMO-1 DEB 4.1 21:21:24 22° SE 21:21:24 22° SE 21:23:21 10° E
Cosmos 923 Rocket 4.0 21:16:44 10° SSW 21:22:00 89° ESE 21:27:21 10° NNE
Cosmos 1328 Rocket 4.3 21:22:05 10° N 21:26:13 42° ENE 21:29:03 18° SE
Cosmos 1766 Rocket 4.4 21:24:24 19° SE 21:26:54 36° E 21:30:58 10° NNE
NOSS 3-4 (A) 4.1 21:23:36 10° NW 21:30:21 58° SW 21:36:03 18° SSE
NOSS 3-4 (C) 4.1 21:23:42 10° NW 21:30:28 58° SW 21:36:11 18° SSE
Cosmos 2058 3.3 21:27:38 13° SSW 21:31:14 60° WNW 21:35:21 10° N
Okean 3 Rocket 4.1 21:30:13 21° SSE 21:32:52 47° E 21:37:08 10° NNE
Cosmos 1624 Rocket 4.1 21:32:29 10° NNW 21:37:41 66° WSW 21:41:12 21° S
Cosmos 1825 2.1 21:39:57 23° S 21:42:15 84° E 21:46:05 10° NNE
NOSS 3-3 (A) 4.5 21:36:19 10° WSW 21:42:22 66° NW 21:49:18 10° NE
Cosmos 1340 3.9 21:40:48 20° SE 21:42:27 29° E 21:45:44 10° NNE
NOSS 3-3 (C) 4.5 21:36:25 10° WSW 21:42:28 66° NW 21:49:25 10° NE
EO 1 Delta rocket 4.2 21:38:57 10° N 21:43:58 87° ESE 21:48:46 17° S
Cosmos 2369 Rocket 3.1 21:40:36 10° NNW 21:45:59 45° NE 21:51:21 10° ESE
Aureole 2 Rocket 2.1 21:45:00 10° NNW 21:47:47 59° WSW 21:48:50 33° S
Cosmos 1980 3.8 21:42:39 10° SW 21:48:18 78° WNW 21:54:00 10° NNE
Cosmos 1076 Rocket 4.4 21:47:32 12° SW 21:51:20 44° WNW 21:55:28 10° N
COSMOS 2455 3.0 21:47:18 10° NW 21:53:22 75° NE 21:58:41 14° SE
Cosmos 2154 Rocket 4.4 21:49:47 11° SSW 21:55:38 59° WNW 22:01:48 10° N
COSMOS 2428 4.1 21:50:47 10° WSW 21:56:05 39° NW 22:01:25 10° NNE
Thor Agena Rocket 3.6 21:52:15 10° NNE 21:57:24 77° WNW 22:01:29 16° SSW
Cosmos 1933 3.3 21:53:27 10° N 21:57:30 80° E 21:59:44 26° SSE
ATLAS 2AS CENTAUR R/B 3.4 21:50:56 10° NW 21:58:03 45° WSW 22:02:39 20° S
Cosmos 2151 3.0 21:55:43 21° SSW 21:58:34 79° WNW 22:02:51 10° N
Cosmos 2341 Rocket 4.0 21:55:15 18° S 22:00:04 88° W 22:06:20 10° N
Helios 1A 3.5 21:57:31 20° SE 22:00:10 53° ENE 22:04:13 10° N
BREEZE-M DEB (TANK) 2.5 22:00:28 10° W 22:03:23 26° SSW 22:03:23 26° SSW
USA 215 3.3 21:57:56 10° ENE 22:04:32 86° NNW 22:11:07 10° WSW
SL-4 R/B 0.8 22:04:30 46° E 22:04:39 48° ENE 22:06:41 10° N
Genesis I 3.2 22:00:58 11° SW 22:04:47 82° NW 22:08:42 10° NE
Cosmos 2237 Rocket 2.6 22:00:44 10° SW 22:06:24 64° NW 22:12:06 10° NNE
Cosmos 2219 Rocket 4.0 22:02:53 10° WSW 22:07:50 31° NW 22:12:50 10° NNE
Cosmos 1151 Rocket 3.1 22:08:59 10° NNW 22:13:19 69° W 22:15:44 25° S
Cosmos 2344 3.5 22:06:22 10° SW 22:13:49 79° SE 22:22:12 10° NE
Meteor 2-12 Rocket 4.5 22:09:55 21° S 22:14:11 77° E 22:20:21 10° NNE
Cosmos 1782 3.2 22:11:21 10° N 22:15:15 55° ENE 22:17:28 23° SE
SL-8 Rocket 4.0 22:11:02 20° S 22:15:32 89° W 22:21:45 10° N
Cosmos 1408 Rocket 3.6 22:15:03 25° S 22:17:29 67° E 22:21:53 10° NNE
CZ-4C R/B 3.1 22:12:46 10° NW 22:19:35 73° NE 22:27:39 10° SE
Cosmos 332 Rocket 3.7 22:15:03 10° NNW 22:19:52 78° WSW 22:22:47 24° SSE
Cosmos 1420 Rocket 4.3 22:15:37 10° NNW 22:20:46 55° WSW 22:23:56 23° S
ALOS 2 3.0 22:18:57 23° SSW 22:21:24 51° W 22:25:43 10° NNW
Helios 1B rocket 4.2 22:18:35 10° NE 22:21:47 21° E 22:23:47 15° SE
ATLAS 5 CENTAUR R/B 4.0 22:20:29 10° NNW 22:22:11 19° NNE 22:24:43 10° ENE
Cosmos 1346 Rocket 3.2 22:20:27 26° SSE 22:22:17 48° E 22:26:06 10° NNE
Cosmos 2333 Rocket 4.3 22:17:30 10° W 22:22:18 27° NW 22:27:09 10° NNE
Cosmos 1727 Rocket 4.0 22:18:48 10° N 22:25:05 87° E 22:29:28 21° S
SL-16 R/B 4.4 22:21:19 10° ESE 22:26:14 25° NE 22:31:09 10° N
Cosmos 1500 Rocket 4.2 22:24:24 23° SSE 22:26:45 44° E 22:30:55 10° NNE
EO 1 Del DPAF 4.5 22:23:35 10° N 22:27:03 35° WNW 22:29:55 14° SW
GP-B 3.5 22:26:00 10° N 22:30:21 55° W 22:33:05 22° SSW
Cosmos 1633 2.7 22:32:54 30° SSE 22:34:30 60° E 22:38:05 10° NNE
Cosmos 1606 4.0 22:31:58 10° NNW 22:35:27 31° W 22:37:25 20° SW
Cosmos 2278 Rocket 4.4 22:34:58 10° WNW 22:37:11 12° W 22:39:22 10° WSW
RESURS DK-1 2.7 22:33:50 10° NNW 22:37:58 65° NE 22:41:05 17° SE
USA 267 4.3 22:36:39 19° SSW 22:39:33 26° SW 22:44:55 10° WNW
ATLAS 5 CENTAUR R/B 4.3 22:36:46 10° WNW 22:40:41 25° N 22:45:07 10° NE
Cosmos 1331 Rocket 4.3 22:35:55 10° NNW 22:41:14 68° ENE 22:45:33 16° SE
Cosmos 1943 Rocket 2.3 22:36:11 10° NW 22:41:49 65° WSW 22:45:29 22° S
Cosmos 1943 4.3 22:41:16 19° SSE 22:44:21 32° ESE 22:49:18 10° NE
Cosmos 44 3.1 22:40:50 15° SW 22:44:22 81° NW 22:48:54 10° NE
Gbstr 26 Del rocket 3.3 22:44:19 28° S 22:45:33 36° SSE 22:49:29 10° E
Cosmos 1048 Rocket 4.3 22:42:50 23° S 22:45:58 56° ESE 22:51:07 10° NNE
Landsat 4 3.9 22:43:01 10° NNE 22:46:47 61° ESE 22:48:35 28° S
Cosmos 371 Rocket 4.2 22:44:32 10° NW 22:48:56 34° WSW 22:51:21 21° SSW
SL-16 R/B 2.4 22:46:35 14° SW 22:51:26 72° WNW 22:57:09 10° NNE
APEX 3.9 22:51:36 10° WNW 22:53:48 22° WSW 22:53:52 22° WSW
Cosmos 405 3.3 22:51:14 10° NNW 22:54:43 54° W 22:56:11 30° SSW
Cosmos 1862 4.1 22:53:29 23° SSE 22:55:32 41° E 22:59:18 10° NNE
CREW DRAGON DEMO-1 DEB 2.7 22:53:17 11° WSW 22:56:14 66° S 22:59:18 10° E
Lacrosse 5 rocket 1.1 22:52:22 10° WNW 22:56:21 65° SW 22:59:14 16° SE
Cosmos 1452 Rocket 4.1 22:51:31 10° NW 22:56:28 42° WSW 22:59:20 22° SSW
Cosmos 1515 Rocket 4.2 22:53:42 10° NNW 22:57:50 43° W 23:00:08 23° SSW
Cosmos 1110 Rocket 4.0 22:54:02 10° NNW 22:59:21 84° WSW 23:03:08 20° SSE
Cosmos 389 Rocket 3.9 22:58:49 10° N 23:02:03 33° ENE 23:04:33 14° SE
ISS -1.6 23:04:52 14° SE 23:04:52 14° SE 23:06:11 10° ESE
SeaSat 1 4.3 23:02:00 10° ENE 23:05:24 18° ESE 23:08:09 12° SE
Cosmos 1707 Rocket 4.1 23:03:52 10° N 23:08:17 55° ENE 23:11:32 17° SSE
Meteor 2-3 Rocket 4.4 23:12:54 16° SW 23:17:12 50° WNW 23:22:47 10° N
Cosmos 1340 4.2 23:15:33 15° WSW 23:18:02 28° WNW 23:21:22 10° N
Cosmos 2228 Rocket 3.6 23:14:25 10° NNW 23:18:52 49° W 23:21:26 23° SSW
Resurs 1-4 Rocket 3.8 23:15:13 10° NE 23:19:31 24° E 23:23:48 10° SE
Cosmos 1302 Rocket 4.1 23:15:19 10° NNW 23:20:34 75° ENE 23:25:17 13° SSE
Meteor 2-6 Rocket 4.3 23:19:42 10° NNW 23:25:07 60° W 23:28:39 21° S
Cosmos 1603 3.8 23:22:37 21° SSW 23:26:27 71° ESE 23:32:10 10° NE
Meteor 1-10 Rocket 4.2 23:20:58 10° NNW 23:26:32 70° W 23:30:21 21° S
ADEOS II 4.5 23:26:20 10° ENE 23:28:32 13° E 23:30:44 10° ESE
Cosmos 1862 Rocket 4.5 23:24:41 10° N 23:28:59 45° ENE 23:32:57 12° SE
SWARM A 4.3 23:25:45 10° N 23:29:06 75° E 23:30:49 27° SSE
CZ-4 R/B 3.8 23:24:36 10° NNE 23:29:18 80° WNW 23:32:25 22° SSW
Cosmos 2369 Rocket 2.7 23:24:47 10° NW 23:30:01 41° WSW 23:33:18 21° SSW
Cosmos 1633 Rocket 3.9 23:27:34 17° SSE 23:30:30 41° E 23:34:39 10° NNE
Cosmos 1743 Rocket 4.3 23:29:40 19° SW 23:32:24 44° WNW 23:36:36 10° N
Sich 1 3.1 23:29:53 23° S 23:32:30 72° E 23:36:51 10° NNE
SL-4 R/B 3.1 23:32:14 16° SE 23:32:50 17° ESE 23:34:45 10° ENE
IRAS Rocket 4.4 23:28:43 13° SSE 23:33:42 75° ENE 23:39:12 10° NNW
Cosmos 44 Rocket 3.5 23:32:07 23° SSW 23:34:50 52° SE 23:39:29 10° NE
Cosmos 1821 Rocket 4.1 23:30:58 20° SSW 23:35:23 70° WNW 23:41:30 10° N
Cosmos 2123 Rocket 4.0 23:29:48 10° NNW 23:36:03 81° W 23:40:48 18° S
Lacrosse 5 3.9 23:36:20 10° SSE 23:38:30 13° ESE 23:40:50 10° E
COSMOS 2455 4.0 23:33:50 10° NW 23:38:49 27° WSW 23:41:47 18° SSW
Cosmos 1656 Rocket 3.7 23:34:57 10° NW 23:40:19 61° WSW 23:44:30 17° S
USA 215 3.8 23:40:55 10° ENE 23:47:23 61° N 23:53:49 10° W
Cosmos 1812 3.3 23:45:41 10° NNW 23:49:23 44° W 23:51:26 23° SSW
CZ-2D R/B 3.0 23:47:52 10° NNE 23:52:53 41° E 23:57:20 13° SSE
